Location: Atherton
(17.2661°S, 145.4859°E)
Time: 02:22:55
(UTC+10:00)

Vanguard 3 - All Passes

Search period start: 24 June 2025 00:00
Search period end: 04 July 2025 00:00
Orbit: 508 x 3215 km, 33.4° (Epoch: 22 June)

Date Brightness Start Highest point End Pass type
(mag) Time Alt. Az. Time Alt. Az. Time Alt. Az.
24 Jun - 01:38:48 10° NNW 01:52:40 39° NNE 02:01:15 10° E visible
24 Jun - 03:54:12 10° WNW 04:06:08 78° SSW 04:12:38 10° SE visible
24 Jun - 06:12:42 10° WSW 06:18:00 21° SSW 06:21:49 10° SSE visible
24 Jun - 10:39:42 10° SW 10:42:58 27° SSE 10:46:50 10° E daylight
24 Jun - 12:49:47 10° W 12:53:59 40° NNW 13:00:25 10° NE daylight
25 Jun - 00:16:58 10° NNW 00:29:54 25° NNE 00:39:18 10° E visible
25 Jun - 02:30:23 10° NW 02:44:54 66° NNE 02:53:01 10° ESE visible
25 Jun - 04:47:55 10° W 04:57:28 42° SSW 05:03:06 10° SE visible
25 Jun - 07:07:19 10° SW 07:09:46 13° SSW 07:11:52 10° SSE daylight
25 Jun - 09:20:50 10° SSW 09:22:41 13° SSE 09:24:30 10° SE daylight
25 Jun - 11:30:07 10° WSW 11:33:55 83° SSE 11:39:11 10° ENE daylight
25 Jun - 13:42:13 10° WNW 13:45:42 17° NNW 13:50:16 10° NNE daylight
25 Jun - 22:57:00 10° N 23:06:18 16° NNE 23:14:17 10° ENE visible
26 Jun - 01:07:17 10° NNW 01:22:46 43° NNE 01:32:30 10° E visible
26 Jun - 03:23:13 10° WNW 03:36:39 76° SSW 03:43:57 10° SE visible
26 Jun - 05:42:27 10° WSW 05:48:56 24° SSW 05:53:21 10° SSE visible
26 Jun - 08:00:52 10° SSW 08:01:50 11° S 08:02:44 10° SSE daylight
26 Jun - 10:10:50 10° SW 10:14:07 29° SSE 10:17:41 10° E daylight
26 Jun - 12:21:19 10° W 12:25:02 32° NNW 12:30:17 10° NNE daylight
26 Jun - 23:45:17 10° NNW 23:59:48 29° NNE 00:10:28 10° E visible
27 Jun - 01:59:03 10° NW 02:15:06 71° NNE 02:24:13 10° ESE visible
27 Jun - 04:17:13 10° W 04:28:08 44° SSW 04:34:28 10° SE visible
27 Jun - 06:37:05 10° SW 06:40:47 15° SSW 06:43:44 10° SSE daylight
27 Jun - 08:51:26 10° SSW 08:53:48 15° SSE 08:55:58 10° SE daylight
27 Jun - 11:01:24 10° WSW 11:05:05 87° NNW 11:09:41 10° ENE daylight
27 Jun - 13:14:34 10° NW 13:16:41 12° NNW 13:19:09 10° N daylight
27 Jun - 22:25:09 10° N 22:36:05 18° NNE 22:45:33 10° ENE visible
28 Jun - 00:35:48 10° NW 00:52:41 48° NNE 01:03:34 10° ESE visible
28 Jun - 02:52:06 10° WNW 03:06:59 74° SSW 03:15:11 10° SE visible
28 Jun - 05:11:59 10° WSW 05:19:47 26° SSW 05:24:53 10° SE visible
28 Jun - 07:30:29 10° SSW 07:32:54 13° S 07:35:00 10° SSE daylight
28 Jun - 09:41:47 10° SW 09:45:17 31° SSE 09:48:42 10° E daylight
28 Jun - 11:52:52 10° W 11:56:09 26° NNW 12:00:19 10° NNE daylight
28 Jun - 23:13:47 10° NNW 23:29:30 32° NNE 23:41:26 10° E visible
29 Jun - 01:27:42 10° NW 01:45:05 75° NNE 01:55:18 10° ESE visible
29 Jun - 03:46:19 10° W 03:58:39 45° SSW 04:05:48 10° SE visible
29 Jun - 06:06:43 10° SW 06:11:46 18° SSW 06:15:31 10° SSE visible
29 Jun - 08:21:50 10° SSW 08:24:55 17° SSE 08:27:33 10° SE daylight
29 Jun - 10:32:34 10° WSW 10:36:16 75° NNW 10:40:21 10° NE daylight
29 Jun - 21:53:39 10° N 22:05:43 19° NE 22:16:28 10° ENE visible
30 Jun - 00:04:23 10° NW 00:22:22 51° NNE 00:34:29 10° ESE visible
30 Jun - 02:20:52 10° WNW 02:37:07 73° SSW 02:46:20 10° SE visible
30 Jun - 04:41:19 10° WSW 04:50:31 29° SSW 04:56:21 10° SE visible
30 Jun - 07:00:13 10° SW 07:03:58 16° S 07:06:56 10° SE daylight
30 Jun - 09:12:33 10° SW 09:16:27 36° SSE 09:19:53 10° E daylight
30 Jun - 11:24:23 10° W 11:27:15 20° NNW 11:30:33 10° NNE daylight
30 Jun - 22:42:28 10° NNW 22:59:00 34° NE 23:12:09 10° E visible
01 Jul - 00:56:20 10° NW 01:14:52 79° NNE 01:26:15 10° ESE visible
01 Jul - 03:15:15 10° W 03:29:02 47° SSW 03:37:04 10° SE visible
01 Jul - 05:36:12 10° WSW 05:42:41 21° SSW 05:47:13 10° SE visible
01 Jul - 07:52:02 10° SW 07:56:02 21° SSE 07:59:10 10° ESE daylight
01 Jul - 10:03:37 10° WSW 10:07:27 64° NNW 10:11:13 10° NE daylight
01 Jul - 21:22:28 10° N 21:35:13 21° NE 21:47:02 10° ENE visible
01 Jul - 23:33:06 10° NW 23:51:51 55° NE 00:05:14 10° ESE visible
02 Jul - 01:49:36 10° WNW 02:07:05 71° SSW 02:17:23 10° SE visible
02 Jul - 04:10:26 10° WSW 04:21:09 32° SSW 04:27:48 10° SE visible
02 Jul - 06:29:52 10° SW 06:34:59 19° S 06:38:44 10° SE visible
02 Jul - 08:43:08 10° SW 08:47:38 42° SSE 08:51:10 10° E daylight
02 Jul - 10:55:51 10° WNW 10:58:19 17° NW 11:00:55 10° N daylight
02 Jul - 22:11:22 10° NNW 22:28:20 37° NE 22:42:40 10° E visible
03 Jul - 00:25:04 10° NW 00:44:25 82° NNE 00:57:04 10° ESE visible
03 Jul - 02:44:06 10° W 02:59:15 48° SSW 03:08:15 10° SE visible
03 Jul - 05:05:29 10° WSW 05:13:30 24° S 05:18:51 10° SE visible
03 Jul - 07:22:02 10° SW 07:27:08 25° SSE 07:30:48 10° ESE daylight
03 Jul - 09:34:29 10° WSW 09:38:37 56° NNW 09:42:13 10° NE daylight
03 Jul - 20:51:34 10° N 21:04:37 22° NE 21:17:18 10° E visible
03 Jul - 23:01:59 10° NW 23:21:08 58° NE 23:35:47 10° ESE visible
